When you browse on this site, cookies collect data to enhance your experience and personalize the content and advertising you see.
Visit our Privacy Policy to learn more. By continuing to use the site, you agree to this use of cookies and data.
  • In Österreich
  • Länderverzeichnis
  • Für 7 Tage
  • Wassertemperatur
  • Wetterkarte
  • News
  • Widgets
  • user-avatar
    Anmelden

    Stündliche Wetter Moung

    Heute, 15 Dezember, Sonntag

    Zeit Temperatur Niederschläge Wind Luftdruck Luftfeuchtigkeit
    00:00 +27°C° 0 mm 3 m/S 758 mmHg 71%
    01:00 +26°C° 0 mm 2 m/S 758 mmHg 71%
    02:00 +26°C° 0 mm 3 m/S 758 mmHg 72%
    03:00 +25°C° 0 mm 3 m/S 758 mmHg 74%
    04:00 +25°C° 0 mm 3 m/S 757 mmHg 75%
    05:00 +25°C° 0 mm 3 m/S 758 mmHg 75%
    06:00 +25°C° 0 mm 3 m/S 758 mmHg 76%
    07:00 +25°C° 0 mm 3 m/S 758 mmHg 77%
    08:00 +26°C° 0 mm 3 m/S 759 mmHg 70%
    09:00 +28°C° 0 mm 4 m/S 759 mmHg 64%
    10:00 +30°C° 0 mm 4 m/S 759 mmHg 57%
    11:00 +32°C° 0 mm 4 m/S 758 mmHg 54%
    12:00 +34°C° 0 mm 4 m/S 758 mmHg 51%
    13:00 +35°C° 0 mm 4 m/S 757 mmHg 47%
    14:00 +35°C° 0 mm 4 m/S 756 mmHg 47%
    15:00 +35°C° 0 mm 3 m/S 756 mmHg 47%
    16:00 +35°C° 0 mm 3 m/S 755 mmHg 46%
    17:00 +34°C° 0 mm 3 m/S 756 mmHg 51%
    18:00 +31°C° 0 mm 3 m/S 756 mmHg 56%
    19:00 +29°C° 0 mm 2 m/S 757 mmHg 61%
    20:00 +29°C° 0 mm 2 m/S 757 mmHg 63%
    21:00 +29°C° 0 mm 2 m/S 757 mmHg 64%
    22:00 +28°C° 0 mm 2 m/S 758 mmHg 66%
    23:00 +28°C° 0 mm 2 m/S 758 mmHg 68%

    Morgen, 16 Dezember, Montag

    Zeit Temperatur Niederschläge Wind Luftdruck Luftfeuchtigkeit
    00:00 +27°C° 0 mm 2 m/S 757 mmHg 70%
    01:00 +27°C° 0 mm 1 m/S 757 mmHg 72%
    02:00 +26°C° 0 mm 2 m/S 757 mmHg 74%
    03:00 +26°C° 0 mm 2 m/S 757 mmHg 76%
    04:00 +25°C° 0 mm 2 m/S 756 mmHg 77%
    05:00 +25°C° 0 mm 3 m/S 757 mmHg 78%
    06:00 +25°C° 0 mm 3 m/S 757 mmHg 79%
    07:00 +25°C° 0 mm 3 m/S 757 mmHg 79%
    08:00 +27°C° 0 mm 3 m/S 758 mmHg 73%
    09:00 +29°C° 0 mm 3 m/S 758 mmHg 67%
    10:00 +30°C° 0 mm 3 m/S 758 mmHg 61%
    11:00 +33°C° 0 mm 3 m/S 757 mmHg 57%
    12:00 +34°C° 0 mm 3 m/S 757 mmHg 53%
    13:00 +35°C° 0 mm 2 m/S 756 mmHg 49%
    14:00 +35°C° 0 mm 2 m/S 755 mmHg 48%
    15:00 +35°C° 0 mm 2 m/S 755 mmHg 48%
    16:00 +35°C° 0 mm 2 m/S 754 mmHg 48%
    17:00 +34°C° 0 mm 2 m/S 755 mmHg 51%
    18:00 +32°C° 0 mm 1 m/S 756 mmHg 53%
    19:00 +30°C° 0 mm 1 m/S 756 mmHg 56%
    20:00 +30°C° 0 mm 1 m/S 757 mmHg 58%
    21:00 +30°C° 0 mm 1 m/S 757 mmHg 60%
    22:00 +29°C° 0 mm 2 m/S 758 mmHg 62%
    23:00 +29°C° 0 mm 2 m/S 758 mmHg 66%

    übermorgen, 17 Dezember, Dienstag

    Zeit Temperatur Niederschläge Wind Luftdruck Luftfeuchtigkeit
    00:00 +28°C° 0 mm 1 m/S 757 mmHg 71%
    01:00 +27°C° 0 mm 1 m/S 757 mmHg 75%
    02:00 +27°C° 0 mm 1 m/S 757 mmHg 76%
    03:00 +26°C° 0 mm 1 m/S 757 mmHg 78%
    04:00 +26°C° 0 mm 1 m/S 756 mmHg 79%
    05:00 +26°C° 0 mm 1 m/S 757 mmHg 79%
    06:00 +26°C° 0 mm 1 m/S 757 mmHg 79%
    07:00 +26°C° 0 mm 2 m/S 758 mmHg 79%
    08:00 +28°C° 0 mm 2 m/S 758 mmHg 73%
    09:00 +29°C° 0 mm 3 m/S 758 mmHg 67%
    10:00 +31°C° 0 mm 3 m/S 758 mmHg 61%
    11:00 +33°C° 0 mm 3 m/S 758 mmHg 57%
    12:00 +34°C° 0 mm 4 m/S 757 mmHg 53%
    13:00 +35°C° 0 mm 4 m/S 756 mmHg 49%
    14:00 +35°C° 0 mm 3 m/S 756 mmHg 47%
    15:00 +36°C° 0 mm 3 m/S 755 mmHg 45%
    16:00 +36°C° 0 mm 3 m/S 755 mmHg 43%
    17:00 +34°C° 0 mm 3 m/S 755 mmHg 47%
    18:00 +31°C° 0 mm 3 m/S 756 mmHg 51%
    19:00 +30°C° 0 mm 2 m/S 757 mmHg 55%
    20:00 +29°C° 0 mm 2 m/S 757 mmHg 57%
    21:00 +29°C° 0 mm 2 m/S 758 mmHg 60%
    22:00 +28°C° 0 mm 2 m/S 758 mmHg 62%
    23:00 +27°C° 0 mm 2 m/S 758 mmHg 65%

    18 Dezember, Mittwoch

    Zeit Temperatur Niederschläge Wind Luftdruck Luftfeuchtigkeit
    00:00 +26°C° 0 mm 1 m/S 758 mmHg 68%
    01:00 +26°C° 0 mm 1 m/S 757 mmHg 70%
    02:00 +25°C° 0 mm 1 m/S 757 mmHg 72%
    03:00 +25°C° 0 mm 1 m/S 757 mmHg 73%
    04:00 +25°C° 0 mm 1 m/S 757 mmHg 74%
    05:00 +25°C° 0 mm 1 m/S 757 mmHg 75%
    06:00 +25°C° 0 mm 2 m/S 758 mmHg 76%
    07:00 +25°C° 0 mm 2 m/S 758 mmHg 77%
    08:00 +26°C° 0 mm 2 m/S 758 mmHg 71%
    09:00 +28°C° 0 mm 2 m/S 759 mmHg 64%
    10:00 +30°C° 0 mm 3 m/S 759 mmHg 58%
    11:00 +31°C° 0 mm 2 m/S 758 mmHg 53%
    12:00 +32°C° 0 mm 2 m/S 757 mmHg 49%
    13:00 +34°C° 0 mm 2 m/S 757 mmHg 44%
    14:00 +35°C° 0 mm 2 m/S 756 mmHg 42%
    15:00 +34°C° 0 mm 1 m/S 756 mmHg 40%
    16:00 +34°C° 0 mm 1 m/S 755 mmHg 38%
    17:00 +32°C° 0 mm 1 m/S 756 mmHg 42%
    18:00 +31°C° 0 mm 1 m/S 756 mmHg 46%
    19:00 +29°C° 0 mm 1 m/S 757 mmHg 51%
    20:00 +29°C° 0 mm 1 m/S 757 mmHg 52%
    21:00 +28°C° 0 mm 1 m/S 758 mmHg 53%
    22:00 +28°C° 0 mm 1 m/S 758 mmHg 54%
    23:00 +27°C° 0 mm 1 m/S 758 mmHg 59%

    19 Dezember, Donnerstag

    Zeit Temperatur Niederschläge Wind Luftdruck Luftfeuchtigkeit
    00:00 +27°C° 0 mm 1 m/S 758 mmHg 64%
    01:00 +26°C° 0 mm 1 m/S 758 mmHg 70%
    02:00 +26°C° 0 mm 1 m/S 757 mmHg 72%
    03:00 +25°C° 0 mm 1 m/S 757 mmHg 74%
    04:00 +25°C° 0 mm 2 m/S 757 mmHg 76%
    05:00 +25°C° 0 mm 1 m/S 757 mmHg 76%
    06:00 +25°C° 0 mm 1 m/S 757 mmHg 76%
    07:00 +25°C° 0 mm 1 m/S 758 mmHg 77%
    08:00 +27°C° 0 mm 2 m/S 758 mmHg 71%
    09:00 +28°C° 0 mm 2 m/S 759 mmHg 65%
    10:00 +30°C° 0 mm 2 m/S 759 mmHg 58%
    11:00 +31°C° 0 mm 2 m/S 758 mmHg 55%
    12:00 +32°C° 0 mm 2 m/S 757 mmHg 51%
    13:00 +34°C° 0 mm 2 m/S 757 mmHg 47%
    14:00 +34°C° 0 mm 2 m/S 756 mmHg 46%
    15:00 +34°C° 0 mm 1 m/S 756 mmHg 46%
    16:00 +34°C° 0 mm 1 m/S 755 mmHg 45%
    17:00 +32°C° 0 mm 1 m/S 756 mmHg 49%
    18:00 +31°C° 0 mm 1 m/S 756 mmHg 53%
    19:00 +30°C° 0 mm 1 m/S 757 mmHg 56%
    20:00 +29°C° 0 mm 1 m/S 757 mmHg 59%
    21:00 +29°C° 0 mm 2 m/S 757 mmHg 62%
    22:00 +28°C° 0 mm 2 m/S 758 mmHg 64%
    23:00 +28°C° 0 mm 2 m/S 758 mmHg 67%

    20 Dezember, Freitag

    Zeit Temperatur Niederschläge Wind Luftdruck Luftfeuchtigkeit
    00:00 +28°C° 0 mm 2 m/S 757 mmHg 70%
    01:00 +27°C° 0 mm 2 m/S 757 mmHg 73%
    02:00 +27°C° 0 mm 2 m/S 757 mmHg 74%
    03:00 +27°C° 0 mm 2 m/S 757 mmHg 76%
    04:00 +27°C° 0 mm 2 m/S 756 mmHg 77%
    05:00 +27°C° 0 mm 1 m/S 757 mmHg 78%
    06:00 +27°C° 0 mm 1 m/S 757 mmHg 78%
    07:00 +27°C° 0 mm 1 m/S 758 mmHg 78%
    08:00 +28°C° 0 mm 1 m/S 758 mmHg 73%
    09:00 +29°C° 0 mm 1 m/S 758 mmHg 67%
    10:00 +29°C° 0 mm 0 m/S 758 mmHg 62%
    11:00 +32°C° 0 mm 1 m/S 758 mmHg 57%
    12:00 +33°C° 0 mm 1 m/S 757 mmHg 53%
    13:00 +34°C° 0 mm 1 m/S 756 mmHg 48%
    14:00 +34°C° 0 mm 1 m/S 755 mmHg 47%
    15:00 +34°C° 0 mm 1 m/S 755 mmHg 45%
    16:00 +35°C° 0 mm 1 m/S 754 mmHg 43%
    17:00 +33°C° 0 mm 1 m/S 755 mmHg 47%
    18:00 +32°C° 0 mm 1 m/S 755 mmHg 51%
    19:00 +31°C° 0 mm 1 m/S 756 mmHg 55%
    20:00 +30°C° 0 mm 1 m/S 756 mmHg 58%
    21:00 +30°C° 0 mm 1 m/S 757 mmHg 60%
    22:00 +29°C° 0 mm 1 m/S 757 mmHg 62%
    23:00 +28°C° 0 mm 2 m/S 757 mmHg 67%
    Mehr zeigen